COSMOS 1275 DEB, 42233

Orbit data source: Space-Track

COSMOS 1275 DEB, 42233 is space debris in LEO originally from a launch on Thu, 04 Jun 1981 UTC launched from the Plesetsk Missile And Space Complex (PKMTR). Debris objects in space refer to the collection of defunct objects orbiting the Earth. Examples of debris include non-operational satellites, rocket bodies, and fragments generated from explosions, collisions, or faulty payload assembly.

Loading next visibility...
Identifier
42233, 1981-053UZ
Orbit
LEO
Country
Flag of CISCIS
Related business
Manufacturer
Unknown
Mission
Spacecraft
Bus & Motor
Unknown
Mass
Unknown
Launch date (UTC)
1981-06-04 (45 years ago)
Launch vehicle
Unknown
Launch site
Plesetsk Missile And Space Complex (PKMTR)
Object type
Payload
Rocket body
Debris
Shape & HBR
Unknown shape, 0.1 m
Radar Cross Section
Small (<0.1 m²)

Expand to show TLE details & history
Last TLE update: 21 hours ago

TLE from 21 hours ago
0 COSMOS 1275 DEB
1 42233U 81053UZ  26103.81385321  .00000539  00000-0  58907-3 0  9993
2 42233  83.0421  42.1174 0134267 324.0433  35.1738 13.67175404571384
Epoch: 2026-04-13T19:31Z
TLE epoch observation values (Epoch: 2026-04-13T19:31:56.917Z)
Latitude
-0.00009°
Longitude
-92.86883°
Altitude
931.972 km
Speed
7.426 km/s
True Right ascension
02h 48m 28s
True Declination
0° 00' 00"
Sunlit
Object was in daylight at epoch
Visualization orbit readout
Latitude
Unknown
Longitude
Unknown
Altitude
Unknown
Speed
Unknown
Apparent Right ascension
Unknown
Apparent Declination
Unknown
Sunlit
N/A
Visualization observer readout
Local Sidereal Time
23:25:13
Azimuth
Unknown
Elevation
Unknown
Doppler factor
Unknown
Orbital elements
Apogee altitude
1,106.041 km
Perigee altitude
907.728 km
Semi-major axis
7,385.021 km
Eccentricity
0.01343
Inclination
83.0421°
RAAN
42.1174°
Arg. of periapsis
324.0433°
True anomaly
36.0724°
Mean anomaly
35.1738°
Eccentric anomaly
35.62186°
Mean motion
3.41992 °/min
Orbital period
105.27 mins
BSTAR
0.00058907
Loading maneuver chart data...
Computing Atmospheric mass density...
Loading historical data...
Loading historical data...
Loading historical data...
Loading historical data...
Loading historical data...
Loading historical data...
Loading historical data...

Documentation

Showing up to 5 results
|